Regional Weather Roundup
Issued by NWS

Home | Current Version | Previous Version | Graphics & Text | Print | Product List | Glossary On
Versions: 1 2 3 4 5 6 7 8 9 10 11 12 13 14 15 16 17 18 19 20 21 22 23 24 25 26 27 28 29 30 31 32 33 34 35 36 37 38 39 40 41 42 43 44 45 46 47 48 49 50
000
ASUS43 KLSX 211157
RWRMO

WEATHER SUMMARY FOR MISSOURI
NATIONAL WEATHER SERVICE SPRINGFIELD MO
600 AM CST TUE FEB 21 2017

NOTE: "FAIR" INDICATES FEW OR NO CLOUDS BELOW 12,000 FEET WITH NO
       SIGNIFICANT WEATHER AND/OR OBSTRUCTIONS TO VISIBILITY.
       CURRENT SKY AND/OR WEATHER CONDITIONS ARE NOT AVAILABLE FOR
       CHILLICOTHE AND FARMINGTON.

MOZ001>031-035>038-043-044-053-054-211300-
...NORTHERN AND WESTERN MISSOURI...

CITY           SKY/WX    TMP DP  RH WIND       PRES   REMARKS
KANSAS CTY INT CLOUDY    48  44  86 NE7       29.95S
6HR MIN TEMP:  47; 6HR MAX TEMP:  56;

LEE`S SUMMIT   CLOUDY    51  47  86 N9        29.95S
6HR MIN TEMP:  51; 6HR MAX TEMP:  58;

ST JOSEPH      FOG       36  36 100 N3        29.95F VSB 1/2
6HR MIN TEMP:  34; 6HR MAX TEMP:  54;

CHILLICOTHE      N/A     50  45  83 N7        29.96F
6HR MIN TEMP:  50; 6HR MAX TEMP:  60;


$$
MOZ066>068-077>081-088>096-101>105-211300-
...SOUTHWEST MISSOURI...

CITY           SKY/WX    TMP DP  RH WIND       PRES   REMARKS
SPRINGFIELD    CLOUDY    55  54  96 NW5       29.90R
6HR MIN TEMP:  54; 6HR MAX TEMP:  57; 6HR PCP:  0.05;

JOPLIN         CLOUDY    49  49 100 CALM      29.92S
6HR MIN TEMP:  48; 6HR MAX TEMP:  57;


$$
MOZ032>034-039>042-045>050-055>058-069>072-211300-
...CENTRAL MISSOURI...

CITY           SKY/WX    TMP DP  RH WIND       PRES   REMARKS
COLUMBIA       NOT AVBL
JEFFERSON CITY CLOUDY    56  56 100 NW3       29.91F
6HR MIN TEMP:  55; 6HR MAX TEMP:  59; 6HR PCP:  0.02;

ROLLA          LGT RAIN  56  56 100 E6        29.90F VSB 1/4
6HR MIN TEMP:  54; 6HR MAX TEMP:  58; 6HR PCP:  0.06;

SEDALIA        PTCLDY    53  52  96 N3        29.93R
6HR MIN TEMP:  52; 6HR MAX TEMP:  60;

WARRENSBURG    CLOUDY    50  50 100 NW8       29.93R

$$
MOZ051-052-059>065-211300-
...EAST CENTRAL MISSOURI...

CITY           SKY/WX    TMP DP  RH WIND       PRES   REMARKS
ST LOUIS INTL  LGT RAIN  62  59  90 CALM      29.93S FOG
6HR MIN TEMP:  61; 6HR MAX TEMP:  66; 6HR PCP:  0.37;


$$
MOZ072>076-082>087-097>100-106>115-211300-
...SOUTH CENTRAL AND SOUTHEAST MISSOURI...

CITY           SKY/WX    TMP DP  RH WIND       PRES   REMARKS
CAPE GIRARDEAU CLOUDY    56  52  86 N7        29.91F
6HR MIN TEMP:  55; 6HR MAX TEMP:  62; 6HR PCP: TRACE;

POPLAR BLUFF   LGT RAIN  58  57  97 NE9       29.89S
6HR MIN TEMP:  57; 6HR MAX TEMP:  61; 6HR PCP:  0.36;

WEST PLAINS    LGT RAIN  57  55  93 NE12      29.88F FOG
6HR MIN TEMP:  56; 6HR MAX TEMP:  59; 6HR PCP:  0.64;


$$



USA.gov is the U.S. government's official web portal to all federal, state and local government web resources and services.